Probability
0 0 0 0 0 0 0 0 0 0 0 0 0 0 0 0 0 0 0 0 0 0 0 0 0 0 0 0 0 0 0 0 0 0 0 0 0 0 0 0 0 0 0 0
0 0 0 0 0 0 0 0 0 0 0 0 0 0 0 0 0 0 0 0 0 0 0 0 0 0 0 0 0 0 0 0 0 0 0 0 0 0 0 0 0 0 0 0
0 0 0 0 0 0 0 0 0 0 0 0 0 0 0 0 0 0 0 0 0 0 0 0 0 0 0 0 0 0 0 0 0 0 0 0 0 0 0 0 0 0 0 0
0 0 0 0 0 0 0 0 0 0 0 0 0 0 0 0 0 0 0 0 0 0 0 0 0 0 0 0 0 0 0 0 0 0 0 0 0 0 0 0 0 0 0 0
0 0 0 0 0 0 0 0 0 0 0 0 0 0 0 0 0 0 0 0 0 0 0 0 0 0 0 0 0 0 0 0 0 0 0 0 0 0 0 0 0 0 0 0
0 0 0 0 0 0 0 0 0 0 0 0 0 0 0 0 0 0 0 0 0 0 0 0 0 0 0 0 0 0 0 0 0 0 0 0 0 0 0 0 0 0 0 0
0 0 0 0 0 0 0 0 0 0 0 0 0 0 0 0 0 0 0 0 0 0 0 0 0 0 0 0 0 0 0 0 0 0 0 0 0 0 0 0 0 0 0 0
0 0 0 0 0 0 0 0 0 0 0 0 0 0 0 0 0 0 0 0 0 0 0 0 0 0 0 0 0 0 0 0 0 0 0 0 0 0 0 0 0 0 0 0
0 0 0 0 0 0 0 0 0 0 0 0 0 0 0 0 0 0 0 0 0 0 0 0 0 0 0 0 0 0 0 0 0 0 0 0 0 0 0 0 0 0 0 0
0 0 0 0 0 0 0 0 0 0 0 0 0 0 0 0 0 0 0 0 0 0 0 0 0 0 0 0 0 0 0 0 0 0 0 0 0 0 0 0 0 0 0 0
0 0 0 0 0 0 0 0 0 0 0 0 0 0 0 0 0 0 0 0 0 0 0 0 0 0 0 0 0 0 0 0 0 0 0 0 0 0 0 0 0 0 0 0
0 0 0 0 0 0 0 0 0 0 0 0 0 0 0 0 0 0 0 0 0 0 0 0 0 0 0 0 0 0 0 0 0 0 0 0 0 0 0 0 0 0 0 0
0 0 0 0 0 0 0 0 0 0 0 0 0 0 0 0 0 0 0 0 0 0 0 0 0 0 0 0 0 0 0 0 0 0 0 0 0 0 0 0 0 0 0 0
0 0 0 0 0 0 0 0 0 0 0 0 0 0 0 0 0 0 0 0 0 0 0 0 0 0 0 0 0 0 0 0 0 0 0 0 0 0 0 0 0 0 0 0
0 0 0 0 0 0 0 0 0 0 0 0 0 0 0 0 0 0 0 0 0 0 0 0 0 0 0 0 0 0 0 0 0 0 0 0 0 0 0 0 0 0 0 0
0 0 0 0 0 0 0 0 0 0 0 0 0 0 0 0 0 0 0 0 0 0 0 0 0 0 0 0 0 0 0 0 0 0 0 0 0 0 0 0 0 0 0 0
0 0 0 0 0 0 0 0 0 0 0 0 0 0 0 0 0 0 0 0 0 0 0 0 0 0 0 0 0 0 0 0 0 0 0 0 0 0 0 0 0 0 0 0
0 0 0 0 0 0 0 0 0 0 0 0 0 0 0 0 0 0 0 0 0 0 0 0 0 0 0 0 0 0 0 0 0 0 0 0 0 0 0 0 0 0 0 0
0 0 0 0 0 0 0 0 0 0 0 0 0 0 0 0 0 0 0 0 0 0 0 0 0 0 0 0 0 0 0 0 0 0 0 0 0 0 0 0 0 0 0 0
0 0 0 0 0 0 0 0 0 0 0 0 0 0 0 0 0 0 0 0 0 0 0 0 0 0 0 0 0 0 0 0 0 0 0 0 0 0 0 0 0 0 0 0
0 0 0 0 0 0 0 0 0 0 0 0 0 0 0 0 0 0 0 0 0 0 0 0 0 0 0 0 0 0 0 0 0 0 0 0 0 0 0 0 0 0 0 0
0 0 0 0 0 0 0 0 0 0 0 0 0 0 0 0 0 0 0 0 0 0 0 0 0 0 0 0 0 0 0 0 0 0 0 0 0 0 0 0 0 0 0 0
0 0 0 0 0 0 0 0 0 0 0 0 0 0 0 0 0 0 0 0 0 0 0 0 0 0 0 0 0 0 0 0 0 0 0 0 0 0 0 0 0 0 0 0
0 0 0 0 0 0 0 0 0 0 0 0 0 0 0 0 0 0 0 0 0 0 0 0 0 0 0 0 0 0 0 0 0 0 0 0 0 0 0 0 0 0 0 0
0 0 0 0 0 0 0 0 0 0 0 0 0 0 0 0 0 0 0 0 0 0 0 0 0 0 0 0 0 0 0 0 0 0 0 0 0 0 0 0 0 0 0 0
0 0 0 0 0 0 0 0 0 0 0 0 0 0 0 0 0 0 0 0 0 0 0 0 0 0 0 0 0 0 0 0 0 0 0 0 0 0 0 0 0 0 0 0
Height
5707 5707 5705 5706 5705 5704 5703 5702 5702 5702 5701 5701 5701 5702 5702 5701 5700 5700 5699 5698 5698 5697 5697 5696 5696 5696 5696 5696 5697 5697 5698 5699 5701 5702 5704 5705 5706 5707 5708 5709 5711 5713 5714 5716
5698 5698 5698 5697 5696 5695 5694 5693 5693 5693 5692 5690 5690 5691 5692 5691 5690 5690 5689 5688 5688 5687 5687 5686 5686 5685 5685 5685 5686 5686 5687 5689 5690 5691 5692 5693 5694 5695 5696 5697 5698 5700 5701 5703
5690 5691 5690 5688 5687 5686 5685 5685 5684 5683 5682 5680 5680 5680 5682 5681 5680 5680 5679 5678 5677 5677 5677 5676 5676 5675 5675 5675 5675 5676 5677 5678 5679 5679 5680 5681 5682 5683 5683 5684 5685 5687 5688 5690
5681 5682 5681 5680 5679 5677 5677 5677 5675 5674 5672 5671 5670 5668 5672 5671 5671 5670 5670 5669 5668 5668 5667 5667 5666 5666 5665 5665 5665 5666 5666 5666 5667 5667 5667 5668 5669 5670 5670 5670 5671 5673 5674 5676
5673 5673 5672 5671 5671 5669 5668 5667 5666 5664 5662 5661 5660 5658 5662 5661 5661 5661 5660 5659 5658 5658 5657 5657 5656 5655 5655 5655 5655 5655 5655 5655 5655 5655 5655 5655 5655 5656 5656 5656 5657 5659 5660 5662
5665 5664 5663 5662 5662 5660 5659 5658 5656 5654 5652 5651 5652 5649 5650 5651 5651 5651 5650 5649 5648 5648 5647 5646 5646 5645 5644 5644 5644 5644 5644 5644 5643 5642 5642 5641 5641 5642 5643 5643 5644 5645 5647 5648
5656 5655 5654 5653 5652 5651 5649 5648 5646 5643 5642 5642 5642 5639 5641 5642 5641 5641 5640 5639 5638 5637 5637 5636 5635 5634 5634 5633 5633 5633 5632 5632 5631 5630 5629 5628 5628 5628 5629 5629 5630 5631 5633 5634
5647 5647 5646 5644 5643 5641 5640 5639 5638 5635 5633 5632 5632 5631 5634 5633 5631 5630 5629 5628 5628 5627 5626 5625 5624 5623 5623 5622 5622 5621 5621 5620 5619 5618 5617 5616 5615 5615 5615 5615 5616 5617 5618 5620
5637 5637 5637 5635 5633 5632 5631 5629 5628 5626 5623 5622 5622 5622 5624 5623 5621 5620 5619 5618 5617 5616 5615 5614 5613 5612 5611 5611 5610 5610 5609 5608 5607 5606 5605 5604 5603 5602 5602 5602 5603 5604 5605 5606
5628 5627 5627 5626 5625 5623 5622 5620 5619 5616 5613 5611 5612 5613 5614 5613 5611 5610 5609 5607 5606 5606 5604 5603 5602 5601 5600 5599 5599 5598 5597 5596 5595 5594 5593 5591 5590 5590 5589 5590 5590 5591 5592 5593
5619 5618 5617 5616 5615 5614 5613 5611 5609 5606 5604 5602 5601 5606 5604 5602 5601 5600 5598 5597 5595 5594 5593 5592 5590 5589 5589 5588 5587 5586 5585 5584 5583 5582 5581 5579 5578 5578 5577 5577 5578 5579 5580 5581
5610 5608 5607 5607 5606 5604 5603 5602 5600 5598 5596 5593 5592 5597 5594 5592 5590 5589 5587 5586 5584 5583 5581 5580 5579 5578 5577 5576 5575 5574 5574 5573 5571 5570 5569 5568 5567 5566 5565 5565 5566 5567 5567 5568
5601 5599 5597 5597 5598 5596 5594 5592 5591 5589 5587 5584 5583 5587 5584 5582 5579 5578 5577 5575 5573 5572 5570 5569 5568 5566 5565 5564 5564 5563 5562 5561 5560 5559 5558 5556 5555 5554 5554 5553 5554 5554 5555 5556
5591 5590 5589 5589 5587 5585 5584 5584 5582 5579 5577 5575 5575 5576 5576 5572 5570 5568 5566 5564 5562 5561 5559 5558 5556 5555 5554 5553 5552 5551 5550 5549 5548 5547 5546 5545 5544 5543 5542 5542 5542 5542 5542 5543
5582 5581 5580 5579 5578 5576 5575 5575 5573 5570 5569 5567 5567 5565 5565 5562 5560 5558 5556 5554 5552 5550 5549 5547 5545 5544 5542 5541 5540 5539 5538 5538 5537 5536 5535 5534 5533 5532 5531 5530 5530 5529 5529 5529
5572 5571 5570 5570 5569 5566 5566 5566 5563 5561 5560 5558 5556 5556 5555 5552 5550 5548 5546 5544 5542 5540 5538 5536 5534 5533 5531 5530 5529 5528 5527 5526 5525 5524 5523 5522 5521 5520 5518 5518 5517 5516 5516 5516
5563 5562 5560 5560 5559 5557 5557 5558 5554 5552 5551 5549 5547 5547 5544 5543 5541 5538 5536 5534 5532 5530 5528 5526 5524 5522 5521 5520 5519 5517 5516 5515 5514 5513 5511 5510 5508 5507 5506 5505 5504 5503 5502 5502
5554 5552 5550 5549 5549 5547 5552 5547 5545 5543 5542 5539 5538 5536 5535 5533 5531 5529 5526 5524 5522 5520 5518 5516 5514 5513 5511 5509 5508 5507 5505 5504 5503 5501 5500 5498 5496 5494 5493 5492 5491 5490 5489 5488
5545 5543 5541 5539 5537 5537 5540 5538 5535 5533 5533 5530 5528 5527 5525 5523 5522 5520 5517 5514 5512 5511 5509 5507 5505 5503 5501 5499 5498 5496 5495 5493 5491 5490 5488 5486 5484 5482 5481 5479 5478 5476 5475 5474
5536 5534 5533 5530 5528 5528 5531 5528 5525 5524 5523 5521 5518 5517 5515 5513 5512 5511 5508 5505 5503 5501 5499 5497 5495 5493 5491 5489 5487 5486 5484 5482 5480 5478 5476 5474 5472 5470 5468 5466 5465 5463 5461 5459
5527 5525 5524 5522 5519 5519 5521 5518 5515 5515 5514 5511 5508 5507 5505 5503 5502 5500 5497 5495 5493 5492 5490 5488 5486 5484 5482 5479 5477 5475 5473 5471 5469 5467 5464 5462 5460 5458 5456 5454 5452 5450 5448 5446
5518 5517 5515 5513 5511 5513 5510 5508 5507 5505 5503 5501 5498 5497 5496 5494 5492 5490 5487 5485 5483 5481 5479 5477 5475 5473 5471 5469 5467 5464 5462 5460 5458 5455 5453 5451 5449 5446 5444 5441 5439 5436 5434 5432
5510 5510 5507 5506 5506 5504 5501 5499 5497 5495 5493 5491 5489 5488 5486 5484 5482 5480 5478 5476 5473 5471 5469 5467 5465 5463 5461 5458 5456 5454 5451 5449 5446 5444 5442 5439 5437 5434 5432 5429 5426 5424 5421 5419
5502 5501 5499 5498 5497 5495 5492 5490 5488 5486 5484 5482 5480 5479 5477 5474 5472 5470 5468 5465 5463 5461 5459 5456 5454 5452 5450 5448 5445 5443 5440 5438 5435 5433 5430 5428 5425 5423 5420 5417 5414 5411 5408 5405
5495 5493 5491 5490 5489 5487 5485 5482 5480 5477 5475 5473 5472 5470 5468 5465 5463 5461 5458 5455 5453 5451 5449 5446 5444 5442 5439 5437 5434 5432 5429 5427 5424 5422 5419 5416 5413 5411 5408 5405 5402 5399 5396 5393
5488 5486 5484 5482 5481 5478 5477 5474 5472 5470 5467 5465 5464 5462 5459 5457 5454 5452 5449 5446 5444 5441 5439 5436 5434 5431 5429 5427 5424 5421 5419 5416 5413 5411 5408 5405 5402 5399 5396 5394 5391 5387 5384 5381
Wind_Speed
33 33 33 32 33 34 34 35 35 35 36 38 39 38 38 38 38 37 37 38 38 38 38 39 39 39 40 40 41 41 41 41 42 43 44 44 44 44 46 46 45 46 46 46
33 33 32 33 33 34 34 35 35 36 36 38 39 39 38 38 38 37 37 38 38 39 39 39 39 40 39 40 40 40 41 42 43 44 46 45 45 45 46 47 47 47 48 48
33 32 32 33 33 34 35 35 36 37 37 38 40 40 37 37 37 37 37 37 38 38 38 38 39 39 39 40 40 40 41 42 44 46 47 47 47 47 48 48 49 49 49 49
33 33 33 33 34 35 36 36 36 37 38 38 39 40 37 37 37 37 37 37 37 37 38 38 38 38 39 40 40 40 42 43 45 47 48 48 49 49 48 49 50 51 51 51
33 33 33 34 35 35 36 36 37 37 38 39 38 40 38 37 37 36 36 36 37 37 38 38 38 38 39 40 41 42 43 44 46 47 48 49 50 51 50 50 51 51 51 51
33 34 34 34 35 36 36 37 37 38 39 40 38 39 38 37 37 36 36 36 36 37 38 38 39 39 40 40 41 42 44 45 46 47 49 50 51 51 51 51 51 52 52 52
33 34 35 35 35 35 36 36 38 39 40 40 38 39 39 37 37 37 37 37 37 37 38 38 39 40 40 41 42 43 44 44 45 46 48 49 50 51 51 52 52 52 53 53
34 34 34 35 36 36 36 36 37 39 40 40 39 39 38 36 36 36 37 37 37 37 38 39 40 40 41 41 42 43 43 44 45 46 47 48 49 50 51 52 52 52 52 52
35 35 35 35 35 35 35 36 36 38 39 40 40 39 38 37 36 37 37 37 37 38 38 39 40 41 41 41 42 42 43 43 44 44 45 47 46 47 48 49 49 50 50 51
35 36 35 34 35 34 35 35 36 37 37 39 40 38 38 37 37 37 37 37 38 39 39 40 40 41 41 41 42 42 42 42 43 43 44 44 44 45 46 47 48 49 49 50
36 37 36 35 34 34 35 35 35 37 38 39 40 38 37 38 38 38 38 38 39 39 40 40 40 40 41 41 41 42 41 42 42 43 43 42 44 45 45 47 47 48 48 49
35 36 36 35 35 34 34 34 35 36 37 38 40 39 38 38 39 39 39 39 39 39 39 39 39 39 40 40 40 40 41 41 41 42 43 42 43 44 45 46 47 47 48 49
35 36 36 35 35 34 33 33 34 35 37 38 38 38 38 38 39 38 38 38 38 39 39 39 39 39 39 40 40 40 40 40 41 41 41 42 42 42 43 44 46 47 48 48
35 36 36 36 35 35 34 34 33 35 36 37 37 37 36 38 38 37 37 37 37 38 38 38 39 39 40 40 40 40 41 41 41 41 41 43 43 42 42 43 45 47 48 48
35 36 35 35 35 35 35 35 35 36 36 38 38 38 36 36 36 36 36 36 37 37 37 38 38 38 38 39 39 39 40 40 40 41 41 42 43 43 43 44 46 47 48 49
35 36 36 35 34 36 36 35 36 37 37 38 38 37 35 36 36 35 35 35 35 35 36 36 37 36 36 37 37 38 39 39 40 40 42 43 44 44 44 45 45 45 47 48
35 36 37 36 35 36 36 35 36 36 36 37 37 35 35 35 35 35 35 35 35 34 34 34 34 35 35 36 36 37 38 39 40 40 42 43 43 44 45 45 45 46 46 48
35 35 37 37 36 37 35 35 35 35 35 35 36 35 35 35 35 35 35 35 35 34 34 33 33 34 34 35 36 37 37 38 40 41 41 42 43 43 43 44 46 46 47 48
34 34 36 37 37 37 34 34 35 35 34 34 35 35 36 36 35 35 35 35 34 34 33 33 33 33 34 34 35 36 37 38 38 40 41 41 42 43 44 44 45 46 46 47
32 33 35 35 36 36 34 34 35 35 35 35 36 36 36 36 35 35 35 35 34 34 33 34 34 33 34 34 35 35 37 38 38 39 40 40 41 42 42 43 44 44 45 45
32 32 33 34 35 35 34 34 34 35 35 35 36 36 36 35 35 34 34 34 34 34 34 34 34 34 34 35 35 36 37 38 38 38 38 39 40 41 41 42 42 43 44 45
31 32 32 33 34 34 34 34 34 35 35 35 35 35 35 35 34 34 34 34 34 34 35 35 35 35 35 35 36 37 37 37 38 37 38 38 39 41 41 41 42 43 44 44
29 29 30 31 31 31 31 32 33 34 34 34 34 34 34 34 35 35 35 35 35 35 35 36 36 36 36 37 37 37 37 37 37 38 38 39 39 40 40 41 42 42 43 43
29 29 30 30 29 30 30 30 31 32 32 32 32 32 33 33 34 34 35 35 35 35 35 36 36 36 36 36 36 37 37 37 38 38 39 39 39 40 41 41 41 41 41 41
29 29 29 29 28 29 29 29 30 30 31 31 31 32 32 32 33 33 33 34 34 34 34 34 35 35 36 36 36 36 36 36 37 38 37 37 38 39 39 39 39 39 39 39
28 29 30 30 29 29 28 29 30 30 31 31 31 32 32 32 32 32 32 32 32 32 33 34 35 35 35 35 35 35 35 35 35 35 34 35 35 36 36 36 36 37 38 38
Wind_Direction
274 273 273 274 273 272 272 272 272 272 271 271 271 271 270 270 270 270 269 268 269 269 268 267 267 267 266 265 265 264 262 259 258 259 259 260 261 261 260 260 259 258 258 260
273 272 273 272 272 272 272 273 273 273 273 273 271 270 270 270 270 270 269 269 269 268 268 267 267 267 267 266 266 263 262 260 260 259 259 261 262 262 262 261 260 259 259 259
273 273 273 272 272 272 272 274 275 275 275 275 274 271 270 270 270 271 270 269 268 268 268 268 267 268 268 266 265 263 262 261 261 260 260 262 263 263 263 262 261 260 260 259
273 273 273 273 273 273 273 274 276 276 276 276 276 275 271 270 271 271 270 270 270 269 269 268 268 268 268 266 265 264 263 263 263 263 263 263 263 263 264 263 262 261 261 260
274 273 273 273 274 274 274 275 276 276 276 276 277 277 274 272 272 272 271 270 270 270 269 269 269 268 268 267 266 265 264 265 265 265 264 264 263 263 263 263 262 261 261 260
276 275 274 275 276 276 276 276 276 275 276 276 277 278 277 275 274 273 273 272 271 270 270 270 270 269 268 267 267 266 266 266 266 266 266 266 265 263 264 263 262 261 260 260
277 277 277 277 276 276 277 278 278 277 277 277 278 278 279 278 277 276 274 272 271 270 270 270 271 270 269 268 268 268 268 269 269 268 268 268 267 265 264 263 261 261 260 260
278 277 278 278 278 277 277 278 278 279 279 279 280 280 280 281 279 278 276 274 273 272 272 272 272 272 270 269 269 270 270 270 271 269 268 268 268 266 265 264 262 261 260 259
281 279 278 278 278 277 277 277 277 279 279 279 279 280 281 282 281 279 278 276 275 274 274 273 273 272 271 270 270 271 271 271 271 270 270 269 269 268 265 264 263 261 260 260
281 280 278 278 278 277 277 278 278 278 279 279 280 282 283 283 282 281 280 278 276 275 275 275 274 273 272 271 271 272 272 272 271 271 271 270 270 269 267 265 264 262 261 260
281 280 279 279 279 280 278 277 278 278 279 280 282 283 284 284 284 283 281 280 278 277 275 274 274 273 273 273 273 272 272 271 270 270 271 271 270 269 268 265 264 262 262 262
282 283 281 280 280 281 280 279 279 279 280 281 282 283 284 284 284 284 283 281 279 278 277 275 275 274 274 273 273 273 273 272 271 270 271 270 270 270 269 267 264 263 264 264
282 283 282 281 280 281 280 279 279 279 279 280 282 284 284 284 284 285 284 282 280 278 277 276 275 275 274 273 272 272 272 271 270 271 270 271 272 271 269 268 266 265 266 265
281 281 282 281 281 281 281 280 281 280 280 281 283 285 284 285 285 285 284 282 280 278 278 277 277 275 274 273 271 270 271 271 271 270 271 272 272 271 270 269 269 268 267 266
281 281 281 281 281 280 281 281 281 280 281 282 284 284 285 285 284 284 284 283 281 281 279 279 278 277 276 275 273 271 270 271 271 271 271 272 272 271 272 272 270 270 269 267
281 281 281 280 281 280 280 282 283 282 282 283 283 284 284 283 283 284 284 285 284 283 281 280 280 279 278 277 274 273 272 271 271 271 272 272 272 271 273 273 272 272 270 267
281 281 281 281 280 281 281 283 284 283 284 283 283 283 282 282 283 285 285 284 284 284 283 282 281 280 279 277 276 274 274 273 273 273 273 274 274 273 273 273 273 273 271 268
281 280 280 281 281 281 284 284 284 284 285 284 283 283 283 283 284 285 285 285 285 285 284 285 285 284 281 279 278 277 276 275 275 275 275 275 275 275 273 274 274 273 272 271
282 282 281 282 282 283 284 286 285 284 285 284 284 284 284 284 285 284 284 284 284 285 285 285 285 285 284 282 281 280 279 278 278 278 278 277 277 275 273 274 275 274 275 273
281 281 281 282 283 284 287 287 286 285 285 284 284 284 284 286 286 285 282 281 283 284 284 284 284 285 285 284 283 283 282 281 281 281 280 279 278 277 276 276 276 276 276 275
281 281 281 282 283 284 286 287 287 287 287 285 285 284 285 286 287 286 283 283 283 283 283 283 284 285 286 286 285 285 284 284 283 282 281 280 279 279 279 279 279 278 278 277
283 284 284 285 286 288 286 285 286 288 288 287 287 286 286 286 287 286 286 285 285 285 285 285 285 286 286 287 286 286 285 285 284 283 282 282 282 283 283 283 282 281 281 279
284 286 288 288 287 287 287 287 287 288 289 289 288 287 287 287 286 286 286 286 287 287 287 288 287 287 286 287 286 286 285 285 284 284 284 284 285 286 286 286 285 284 283 281
284 284 286 288 288 287 285 285 287 289 289 289 288 288 288 288 288 288 287 286 286 287 288 288 288 287 287 288 288 287 286 285 286 286 286 285 286 286 287 287 286 285 284 283
286 286 287 288 289 286 285 286 287 287 288 289 288 289 289 290 291 291 290 289 288 289 289 289 289 288 288 289 289 288 288 288 288 288 287 287 287 287 287 287 286 286 286 286
287 288 288 288 288 286 286 286 288 289 289 288 287 289 289 291 292 292 292 291 290 290 292 292 291 291 290 291 290 289 290 290 289 289 289 290 290 290 288 288 288 287 288 287